This is the latest recevied weather packets stored in our database for station/object AI9F. If no packets are shown the sender has not sent any weather packets the latest 10 day(s).
| Time | Temp. | Humidity | Pressure | Rain* | Wind** | Luminosity | Snow |
|---|---|---|---|---|---|---|---|
| 1777681863 | 12.78° C | 58% | 1016.7 hPa | 0 mm | - | 10 W/m² | - |
| 1777681559 | 13.33° C | 57% | 1016.6 hPa | 0 mm | - | 13 W/m² | - |
| 1777681256 | 13.33° C | 55% | 1016.5 hPa | 0 mm | - | 17 W/m² | - |
| 1777680954 | 13.33° C | 55% | 1016.6 hPa | 0 mm | - | 20 W/m² | - |
| 1777680651 | 13.89° C | 56% | 1016.5 hPa | 0 mm | - | 23 W/m² | - |
| 1777680349 | 13.89° C | 54% | 1016.3 hPa | 0 mm | - | 27 W/m² | - |
| 1777680046 | 14.44° C | 50% | 1016.1 hPa | 0 mm | - | 29 W/m² | - |
| 1777679742 | 15° C | 46% | 1016.2 hPa | 0 mm | - | 41 W/m² | - |
| 1777679438 | 15.56° C | 43% | 1016.1 hPa | 0 mm | - | 52 W/m² | - |
| 1777679134 | 15.56° C | 41% | 1015.8 hPa | 0 mm | - | 59 W/m² | - |
| 1777678832 | 15.56° C | 42% | 1016.1 hPa | 0 mm | - | 69 W/m² | - |
| 1777678529 | 15.56° C | 43% | 1015.7 hPa | 0 mm | - | 76 W/m² | - |
| 1777678226 | 15.56° C | 49% | 1015.8 hPa | 0 mm | - | 83 W/m² | - |
| 1777677922 | 15.56° C | 45% | 1015.9 hPa | 0 mm | - | 92 W/m² | - |
| 1777677620 | 16.11° C | 45% | 1015.7 hPa | 0 mm | - | 100 W/m² | - |
| 1777677317 | 16.11° C | 38% | 1015.7 hPa | 0 mm | - | 113 W/m² | - |
| 1777677016 | 16.11° C | 43% | 1016 hPa | 0 mm | - | 122 W/m² | - |
| 1777676714 | 16.11° C | 43% | 1016.1 hPa | 0 mm | - | 131 W/m² | - |
| 1777676411 | 16.67° C | 42% | 1016.2 hPa | 0 mm | - | 147 W/m² | - |
| 1777676109 | 16.67° C | 42% | 1016.2 hPa | 0 mm | - | 161 W/m² | - |
| 1777675804 | 16.11° C | 44% | 1016.2 hPa | 0 mm | - | 177 W/m² | - |
| 1777675503 | 16.11° C | 39% | 1016.3 hPa | 0 mm | - | 203 W/m² | - |
| 1777675199 | 16.11° C | 40% | 1016.5 hPa | 0 mm | - | 223 W/m² | - |
| 1777674896 | 16.11° C | 40% | 1016.3 hPa | 0 mm | - | 249 W/m² | - |
| 1777674591 | 16.11° C | 42% | 1016.4 hPa | 0 mm | - | 261 W/m² | - |
* Rain latest hour (hover to see other rain measurements)
** Current wind speed in m/s (hover to see current wind gust speed)